User: anonymous   Login
Location: Unspecified
(0.0000°N, 0.0000°E)
Time: 22:13:10
(UTC+00:00)
Language:

STARLINK-11463 [DTC] - Orbit

View from above orbital plane
View from above orbital plane
View from above satellite
View from above satellite

Ground track
Ground track

The orbit is defined by the following mean orbital elements,

1 62066U          26145.47239314 +.00000000 +00000-0 +12563-2 0 00003
2 62066  53.1581  52.7078 0001562  90.7795 269.3402 15.69755541    09
Epoch (UTC): 25 May 2026 11:20:14
Eccentricity: 0.0001562
inclination: 53.1581°
perigee height: 359 km
apogee height: 361 km
right ascension of ascending node: 52.7078°
argument of perigee: 90.7795°
revolutions per day: 15.69755541
mean anomaly at epoch: 269.3402°

The dashed part of the orbit path shows where the satellite is in the earth's shadow,  

DLR